Location: Central Falls
(41.8900°N, 71.3929°W)
Time: 11:03:09
(UTC+00:00)

A-11 Canister half - Pass Details

Date: 09 December 2023
Orbit: 1526 x 1682 km, 47.3° (Epoch: 20 February)

Event Time Altitude Azimuth Distance (km) Brightness Sun altitude
Rises 05:11:08 0° 297° (WNW) 4,916 - -69.7°
Reaches altitude 10° 05:14:24 10° 294° (WNW) 3,912 - -69.4°
Maximum altitude 05:24:02 56° 220° (SW) 1,881 - -68.6°
Drops below altitude 10° 05:33:22 10° 145° (SE) 3,784 - -67.6°
Sets 05:36:28 0° 141° (SE) 4,746 - -67.3°
